K9DC Weather Reports


time (UTC)temp
C
wind
direction
speed
KPH
gust
KPH
rain 1hr
cm
rain 24hr
cm
rain mn
cm
humidity
%
barometer
mb
20260509090503 13 229 3.2 11.3 0.00 0.00 0.00 88 1006.4
20260509090003 13 229 3.2 11.3 0.00 0.00 0.00 88 1006.5
20260509085503 13 229 3.2 11.3 0.00 0.00 0.00 88 1006.4
20260509085004 13 229 3.2 11.3 0.00 0.00 0.00 88 1006.4
20260509084504 13 229 3.2 11.3 0.00 0.00 0.00 88 1006.5
20260509084003 13 229 3.2 11.3 0.00 0.00 0.00 88 1006.5
20260509083503 13 229 3.2 11.3 0.00 0.00 0.00 88 1006.5
20260509083003 13 229 3.2 11.3 0.00 0.00 0.00 88 1006.6
20260509082505 13 229 3.2 11.3 0.00 0.00 0.00 88 1006.5
20260509082004 13 229 3.2 11.3 0.00 0.00 0.00 88 1006.5
20260509081504 13 229 3.2 11.3 0.00 0.00 0.00 88 1006.6
20260509081005 13 229 3.2 11.3 0.00 0.00 0.00 88 1006.6
20260509080503 13 229 3.2 11.3 0.00 0.00 0.00 88 1006.6
20260509080003 13 229 3.2 11.3 0.00 0.00 0.00 88 1006.6
20260509075504 13 229 3.2 11.3 0.00 0.00 0.00 88 1006.6
20260509075004 13 229 3.2 11.3 0.00 0.00 0.00 88 1006.6
20260509074504 13 229 3.2 11.3 0.00 0.00 0.00 88 1006.6
20260509074004 13 229 3.2 11.3 0.00 0.00 0.00 88 1006.6
20260509073503 13 229 3.2 11.3 0.00 0.00 0.00 88 1006.6
20260509073004 13 229 3.2 11.3 0.00 0.00 0.00 88 1006.6
20260509072504 13 229 3.2 11.3 0.00 0.00 0.00 88 1006.6
20260509072004 13 229 3.2 11.3 0.00 0.00 0.00 88 1006.7
20260509071504 13 229 3.2 11.3 0.00 0.00 0.00 88 1006.7
20260509071004 13 229 3.2 11.3 0.00 0.00 0.00 88 1006.8
20260509070503 13 229 3.2 11.3 0.00 0.00 0.00 88 1006.8
20260509070005 13 229 3.2 11.3 0.00 0.00 0.00 88 1006.9
20260509065504 13 229 3.2 11.3 0.00 0.00 0.00 88 1007.1
20260509065004 13 229 3.2 11.3 0.00 0.00 0.00 88 1007.2
20260509064503 13 229 3.2 11.3 0.00 0.00 0.00 88 1007.2
20260509064003 13 229 3.2 11.3 0.00 0.00 0.00 88 1007.4
20260509063503 13 229 3.2 11.3 0.00 0.00 0.00 88 1007.4
20260509063004 13 229 3.2 11.3 0.00 0.00 0.00 88 1007.4
20260509062504 13 229 3.2 11.3 0.00 0.00 0.00 88 1007.5
20260509062003 13 229 3.2 11.3 0.00 0.00 0.00 88 1007.5
20260509061504 13 229 3.2 11.3 0.00 0.00 0.00 88 1007.7
20260509061003 13 229 3.2 11.3 0.00 0.00 0.00 88 1007.8
20260509060503 13 229 3.2 11.3 0.00 0.00 0.00 88 1007.8
20260509060004 13 229 3.2 11.3 0.00 0.00 0.00 88 1007.9
20260509055504 13 229 3.2 11.3 0.00 0.00 0.00 88 1008.0
20260509055003 13 229 3.2 11.3 0.00 0.00 0.00 88 1008.0
20260509054503 13 229 3.2 11.3 0.00 0.00 0.00 88 1008.0
20260509054003 13 229 3.2 11.3 0.00 0.00 0.00 88 1008.0
20260509053504 13 229 3.2 11.3 0.00 0.00 0.00 87 1008.0
20260509053005 13 229 3.2 11.3 0.00 0.00 0.00 88 1008.2
20260509052503 13 229 3.2 11.3 0.00 0.00 0.00 87 1008.1
20260509052004 13 229 3.2 11.3 0.00 0.00 0.00 87 1008.2
20260509051503 13 229 3.2 11.3 0.00 0.00 0.00 87 1008.3
20260509051004 13 229 3.2 11.3 0.00 0.00 0.00 87 1008.2
20260509050505 13 229 3.2 11.3 0.00 0.00 0.00 87 1008.2
20260509050003 13 229 3.2 11.3 0.00 0.00 0.00 87 1008.1
20260509045504 13 229 3.2 11.3 0.00 0.00 0.00 87 1008.1
20260509045003 13 229 3.2 11.3 0.00 0.00 0.00 87 1008.1
20260509044503 13 228 3.2 11.3 0.00 0.00 0.00 87 1008.0
20260509044003 13 223 4.8 14.5 0.00 0.00 0.00 87 1008.2
20260509043504 13 224 4.8 14.5 0.00 0.00 0.00 87 1008.1
20260509043004 13 226 4.8 12.9 0.00 0.00 0.00 87 1008.1
20260509042503 13 221 6.4 14.5 0.00 0.00 0.00 87 1008.1
20260509042004 13 222 6.4 16.1 0.00 0.00 0.00 87 1008.0
20260509041503 13 212 6.4 16.1 0.00 0.00 0.00 87 1008.0
20260509041003 13 202 8.0 20.9 0.00 0.00 0.00 87 1008.1
20260509040504 13 211 8.0 20.9 0.00 0.00 0.00 87 1008.1
20260509040005 13 213 8.0 16.1 0.00 0.00 0.00 87 1008.1
20260509035503 13 207 8.0 16.1 0.00 0.00 0.00 87 1008.0
20260509035004 13 211 8.0 16.1 0.00 0.00 0.00 87 1008.1
20260509034503 13 210 6.4 14.5 0.00 0.00 0.00 87 1008.1
20260509034004 13 210 6.4 16.1 0.00 0.00 0.00 87 1008.0
20260509033504 13 216 6.4 16.1 0.00 0.00 0.00 87 1008.1
20260509033003 13 222 4.8 12.9 0.00 0.00 0.00 87 1008.1
20260509032504 13 219 4.8 12.9 0.00 0.00 0.00 87 1008.1
20260509032004 13 210 6.4 16.1 0.00 0.00 0.00 87 1008.0
20260509031503 13 209 6.4 16.1 0.00 0.00 0.00 87 1008.0
20260509031004 13 204 4.8 14.5 0.00 0.00 0.00 87 1008.1
20260509030503 13 203 3.2 12.9 0.00 0.00 0.00 87 1008.0
20260509030003 13 212 3.2 12.9 0.00 0.00 0.00 87 1008.1
20260509025504 13 215 3.2 12.9 0.00 0.00 0.00 87 1008.1
20260509025005 13 216 3.2 12.9 0.00 0.00 0.00 87 1008.4
20260509024503 13 219 3.2 9.7 0.00 0.00 0.00 87 1008.3
20260509024004 13 221 3.2 11.3 0.00 0.00 0.00 87 1008.4
20260509023504 13 226 6.4 14.5 0.00 0.00 0.00 87 1008.3
20260509023005 13 229 4.8 14.5 0.00 0.00 0.00 86 1008.4
20260509022505 13 226 4.8 16.1 0.00 0.00 0.00 86 1008.4
20260509022003 13 221 6.4 20.9 0.00 0.00 0.00 86 1008.5
20260509021504 13 230 8.0 24.1 0.00 0.00 0.00 86 1008.5
20260509021003 13 243 9.7 24.1 0.00 0.00 0.00 86 1008.5
20260509020505 13 248 9.7 20.9 0.00 0.00 0.00 86 1008.3
20260509020003 13 249 11.3 22.5 0.00 0.00 0.00 86 1008.3
20260509015505 13 252 12.9 25.7 0.00 0.00 0.00 86 1008.1
20260509015004 13 256 9.7 25.7 0.00 0.00 0.00 86 1008.1
20260509014503 13 251 8.0 24.1 0.00 0.00 0.00 86 1008.1
20260509014003 13 236 6.4 17.7 0.00 0.00 0.00 86 1008.1
20260509013504 13 229 6.4 17.7 0.00 0.00 0.00 86 1008.2
20260509013004 13 226 4.8 16.1 0.00 0.00 0.00 86 1008.2
20260509012504 13 233 4.8 16.1 0.00 0.00 0.00 86 1008.1
20260509012003 13 236 4.8 14.5 0.00 0.00 0.00 86 1008.2
20260509011504 13 244 4.8 14.5 0.00 0.00 0.00 86 1008.2
20260509011004 13 254 4.8 14.5 0.00 0.00 0.00 86 1008.1
20260509010503 13 253 4.8 16.1 0.00 0.00 0.00 86 1008.2
20260509010004 13 255 6.4 16.1 0.00 0.00 0.00 86 1008.3
20260509005503 13 259 4.8 14.5 0.00 0.00 0.00 86 1008.3
20260509005003 13 246 3.2 8.0 0.00 0.00 0.00 85 1008.4
20260509004503 13 229 3.2 8.0 0.00 0.00 0.00 85 1008.4
20260509004004 13 221 4.8 9.7 0.00 0.00 0.00 85 1008.3
20260509003504 13 216 4.8 14.5 0.00 0.00 0.00 85 1008.2
20260509003003 13 223 4.8 14.5 0.00 0.00 0.00 85 1008.1
20260509002503 13 238 3.2 14.5 0.00 0.00 0.00 85 1008.1
20260509002003 13 239 3.2 9.7 0.00 0.00 0.00 85 1008.2
20260509001504 13 239 1.6 9.7 0.00 0.00 0.00 85 1008.3
20260509001004 13 238 3.2 9.7 0.00 0.00 0.00 85 1008.3
20260509000503 13 250 3.2 11.3 0.00 0.00 0.00 85 1008.4
20260509000004 13 256 3.2 12.9 0.00 0.00 0.00 85 1008.6
20260508235503 13 258 3.2 12.9 0.00 0.00 0.00 84 1008.7
20260508235003 13 251 4.8 12.9 0.00 0.00 0.00 84 1008.7
20260508234504 13 252 4.8 12.9 0.00 0.00 0.00 84 1008.6
20260508234004 13 257 4.8 12.9 0.00 0.00 0.00 84 1008.7
20260508233504 13 246 4.8 12.9 0.00 0.00 0.00 84 1008.7
20260508233003 13 236 4.8 11.3 0.00 0.00 0.00 84 1008.6
20260508232504 13 235 3.2 9.7 0.00 0.00 0.00 83 1008.5
20260508232004 13 236 3.2 11.3 0.00 0.00 0.00 83 1008.5
20260508231504 13 239 3.2 11.3 0.00 0.00 0.00 83 1008.5
20260508231004 13 244 3.2 9.7 0.00 0.00 0.00 83 1008.5
20260508230503 13 245 4.8 9.7 0.00 0.00 0.00 82 1008.6
20260508230004 14 247 3.2 12.9 0.00 0.00 0.00 82 1008.8
20260508225504 14 284 3.2 12.9 0.00 0.00 0.00 82 1009.0
20260508225004 14 336 1.6 6.4 0.00 0.00 0.00 82 1009.1
20260508224504 14 336 1.6 3.2 0.00 0.00 0.00 81 1008.8
20260508224003 14 336 0.0 3.2 0.00 0.00 0.00 81 1008.7
20260508223504 14 337 0.0 1.6 0.00 0.00 0.00 81 1008.7
20260508223004 14 337 0.0 1.6 0.00 0.00 0.00 81 1008.8
20260508222503 14 337 0.0 1.6 0.00 0.00 0.00 81 1008.9
20260508222003 14 336 0.0 3.2 0.00 0.00 0.00 80 1008.8
20260508221505 14 336 0.0 3.2 0.00 0.00 0.00 80 1008.9
20260508221004 14 336 1.6 6.4 0.00 0.00 0.00 80 1008.9
20260508220503 14 337 3.2 8.0 0.00 0.00 0.00 80 1008.9
20260508220004 14 337 3.2 8.0 0.00 0.00 0.00 79 1009.1
20260508215503 15 339 1.6 9.7 0.00 0.00 0.00 79 1009.0
20260508215004 15 318 4.8 14.5 0.00 0.00 0.00 78 1009.0
20260508214504 15 317 6.4 17.7 0.00 0.00 0.00 78 1009.1
20260508214004 15 318 8.0 17.7 0.00 0.00 0.00 76 1009.2
20260508213505 15 316 6.4 17.7 0.00 0.00 0.00 76 1009.1
20260508213005 15 314 3.2 16.1 0.00 0.00 0.00 74 1008.9
20260508212503 16 308 1.6 12.9 0.00 0.00 0.00 73 1008.8
20260508212004 16 311 3.2 12.9 0.00 0.00 0.00 72 1008.7
20260508211505 16 319 4.8 19.3 0.00 0.00 0.00 71 1008.7
20260508211003 17 320 8.0 19.3 0.00 0.00 0.00 69 1008.7
20260508210503 17 310 8.0 32.2 0.00 0.00 0.00 67 1008.7
20260508210003 17 293 6.4 32.2 0.00 0.00 0.00 65 1008.8
20260508205505 18 272 4.8 12.9 0.00 0.00 0.00 63 1008.6
20260508205003 18 264 4.8 12.9 0.00 0.00 0.00 61 1008.5
20260508204503 18 254 4.8 16.1 0.00 0.00 0.00 56 1008.3
20260508204005 18 251 4.8 16.1 0.00 0.00 0.00 55 1008.3
20260508203504 18 248 4.8 14.5 0.00 0.00 0.00 55 1008.3
20260508203004 18 244 4.8 16.1 0.00 0.00 0.00 52 1008.2
20260508202504 18 248 3.2 16.1 0.00 0.00 0.00 55 1008.4
20260508202003 18 251 4.8 17.7 0.00 0.00 0.00 50 1008.4
20260508201503 18 249 6.4 17.7 0.00 0.00 0.00 49 1008.4
20260508201003 18 245 6.4 24.1 0.00 0.00 0.00 49 1008.5
20260508200504 18 242 6.4 24.1 0.00 0.00 0.00 49 1008.5
20260508200004 18 252 6.4 19.3 0.00 0.00 0.00 50 1008.6
20260508195504 18 255 4.8 12.9 0.00 0.00 0.00 53 1008.6
20260508195003 18 229 4.8 11.3 0.00 0.00 0.00 52 1008.7
20260508194504 18 235 6.4 14.5 0.00 0.00 0.00 52 1008.7
20260508194004 18 237 4.8 14.5 0.00 0.00 0.00 54 1008.8
20260508193504 18 231 6.4 17.7 0.00 0.00 0.00 53 1008.8
20260508193004 18 231 6.4 17.7 0.00 0.00 0.00 53 1008.9
20260508192503 18 228 6.4 17.7 0.00 0.00 0.00 53 1009.0
20260508192003 18 222 6.4 17.7 0.00 0.00 0.00 54 1009.2
20260508191504 18 218 6.4 19.3 0.00 0.00 0.00 52 1009.3
20260508191003 18 223 8.0 19.3 0.00 0.00 0.00 54 1009.3
20260508190503 18 223 8.0 20.9 0.00 0.00 0.00 52 1009.3
20260508190004 18 231 6.4 20.9 0.00 0.00 0.00 54 1009.5
20260508185505 18 235 6.4 16.1 0.00 0.00 0.00 53 1009.6
20260508185004 17 230 6.4 14.5 0.00 0.00 0.00 54 1009.8
20260508184504 17 243 8.0 24.1 0.00 0.00 0.00 54 1009.9
20260508184003 17 249 11.3 24.1 0.00 0.00 0.00 53 1010.0
20260508183503 17 249 11.3 29.0 0.00 0.00 0.00 52 1010.1
20260508183004 17 253 9.7 29.0 0.00 0.00 0.00 52 1010.1
20260508182504 17 253 6.4 19.3 0.00 0.00 0.00 53 1010.1
20260508182004 17 231 6.4 22.5 0.00 0.00 0.00 53 1010.1
20260508181503 17 228 8.0 25.7 0.00 0.00 0.00 52 1010.1
20260508181003 17 235 9.7 25.7 0.00 0.00 0.00 51 1010.2
20260508180505 17 237 11.3 25.7 0.00 0.00 0.00 52 1010.2
20260508180004 17 240 12.9 24.1 0.00 0.00 0.00 50 1010.2
20260508175504 18 236 11.3 24.1 0.00 0.00 0.00 51 1010.2
20260508175003 18 234 8.0 24.1 0.00 0.00 0.00 51 1010.3
20260508174503 18 242 9.7 22.5 0.00 0.00 0.00 50 1010.3
20260508174003 18 244 9.7 27.4 0.00 0.00 0.00 49 1010.4
20260508173503 18 237 9.7 27.4 0.00 0.00 0.00 47 1010.5
20260508173004 19 245 11.3 25.7 0.00 0.00 0.00 46 1010.6
20260508172504 19 236 11.3 25.7 0.00 0.00 0.00 45 1010.6
20260508172003 20 217 11.3 25.7 0.00 0.00 0.00 46 1010.7
20260508171503 20 220 12.9 29.0 0.00 0.00 0.00 45 1010.6
20260508171005 20 222 12.9 29.0 0.00 0.00 0.00 45 1010.6
20260508170504 20 216 11.3 25.7 0.00 0.00 0.00 45 1010.7
20260508170003 20 209 11.3 25.7 0.00 0.00 0.00 49 1010.7
20260508165504 20 215 9.7 24.1 0.00 0.00 0.00 48 1010.8
20260508165004 20 229 11.3 29.0 0.00 0.00 0.00 51 1010.9
20260508164504 19 230 12.9 29.0 0.00 0.00 0.00 50 1010.9
20260508164004 18 227 11.3 24.1 0.00 0.00 0.00 49 1011.0
20260508163503 18 222 11.3 25.7 0.00 0.00 0.00 47 1011.2
20260508163003 18 229 9.7 25.7 0.00 0.00 0.00 48 1011.2
20260508162503 18 246 14.5 27.4 0.00 0.00 0.00 47 1011.3
20260508162003 18 253 14.5 27.4 0.00 0.00 0.00 45 1011.4
20260508161504 18 254 14.5 35.4 0.00 0.00 0.00 47 1011.5
20260508161003 18 252 16.1 35.4 0.00 0.00 0.00 47 1011.4
20260508160503 18 245 16.1 32.2 0.00 0.00 0.00 46 1011.5
20260508160003 18 238 14.5 32.2 0.00 0.00 0.00 49 1011.5
20260508155504 18 242 16.1 30.6 0.00 0.00 0.00 48 1011.6
20260508155004 18 243 14.5 30.6 0.00 0.00 0.00 47 1011.6
20260508154503 18 246 12.9 37.0 0.00 0.00 0.00 48 1011.6
20260508154003 18 247 16.1 37.0 0.00 0.00 0.00 48 1011.5
20260508153503 18 247 14.5 30.6 0.00 0.00 0.00 49 1011.5
20260508153004 18 238 12.9 27.4 0.00 0.00 0.00 49 1011.6
20260508152504 17 231 11.3 24.1 0.00 0.00 0.00 48 1011.7
20260508152004 17 238 8.0 24.1 0.00 0.00 0.00 48 1011.7
20260508151503 18 246 9.7 32.2 0.00 0.00 0.00 49 1011.7
20260508151003 18 253 12.9 32.2 0.00 0.00 0.00 48 1011.7
20260508150503 18 257 12.9 32.2 0.00 0.00 0.00 49 1011.7
20260508150004 18 256 12.9 32.2 0.00 0.00 0.00 47 1011.7
20260508145503 18 253 11.3 25.7 0.00 0.00 0.00 48 1011.7
20260508145003 17 248 11.3 27.4 0.00 0.00 0.00 51 1011.8
20260508144505 17 249 12.9 27.4 0.00 0.00 0.00 51 1011.8
20260508144003 17 256 14.5 29.0 0.00 0.00 0.00 50 1011.9
20260508143503 17 257 17.7 33.8 0.00 0.00 0.00 50 1012.0
20260508143004 17 255 16.1 33.8 0.00 0.00 0.00 50 1012.1
20260508142504 16 261 11.3 29.0 0.00 0.00 0.00 51 1012.2
20260508142005 16 264 11.3 25.7 0.00 0.00 0.00 52 1012.2
20260508141503 16 264 9.7 25.7 0.00 0.00 0.00 53 1012.2
20260508141004 16 250 6.4 20.9 0.00 0.00 0.00 55 1012.3
20260508140503 15 239 9.7 20.9 0.00 0.00 0.00 54 1012.3
20260508140004 15 261 9.7 22.5 0.00 0.00 0.00 54 1012.3
20260508135505 15 266 8.0 22.5 0.00 0.00 0.00 55 1012.4
20260508135005 15 251 11.3 25.7 0.00 0.00 0.00 54 1012.5
20260508134503 15 250 11.3 25.7 0.00 0.00 0.00 53 1012.4
20260508134003 14 256 9.7 20.9 0.00 0.00 0.00 55 1012.4
20260508133504 14 251 9.7 24.1 0.00 0.00 0.00 56 1012.5
20260508133003 14 256 11.3 24.1 0.00 0.00 0.00 56 1012.5
20260508132504 13 264 11.3 27.4 0.00 0.00 0.00 56 1012.6
20260508132004 13 263 8.0 27.4 0.00 0.00 0.00 57 1012.6
20260508131503 13 265 8.0 19.3 0.00 0.00 0.00 58 1012.7
20260508131004 13 258 8.0 20.9 0.00 0.00 0.00 58 1012.7
20260508130504 13 251 9.7 25.7 0.00 0.00 0.00 58 1012.6
20260508130005 12 259 8.0 25.7 0.00 0.00 0.00 58 1012.6
20260508125504 12 262 6.4 17.7 0.00 0.00 0.00 60 1012.6
20260508125004 12 252 6.4 17.7 0.00 0.00 0.00 61 1012.6
20260508124504 12 252 8.0 17.7 0.00 0.00 0.00 60 1012.6
20260508124003 12 247 11.3 22.5 0.00 0.00 0.00 60 1012.4
20260508123504 11 239 9.7 22.5 0.00 0.00 0.00 61 1012.5
20260508123004 11 230 8.0 24.1 0.00 0.00 0.00 62 1012.3
20260508122504 11 243 9.7 24.1 0.00 0.00 0.00 63 1012.2
20260508122003 11 255 11.3 32.2 0.00 0.00 0.00 63 1012.3
20260508121504 10 248 8.0 32.2 0.00 0.00 0.00 64 1012.5
20260508121004 10 233 8.0 19.3 0.00 0.00 0.00 65 1012.4
20260508120505 10 233 8.0 19.3 0.00 0.00 0.00 65 1012.4
20260508120003 10 233 8.0 19.3 0.00 0.00 0.00 66 1012.3
20260508115505 10 233 8.0 19.3 0.00 0.00 0.00 67 1012.4
20260508115005 9 233 8.0 19.3 0.00 0.00 0.00 67 1012.4
20260508114504 9 233 8.0 19.3 0.00 0.00 0.00 67 1012.3
20260508114003 9 233 8.0 19.3 0.00 0.00 0.00 67 1012.3
20260508113504 9 233 8.0 19.3 0.00 0.00 0.00 67 1012.2
20260508113005 8 233 8.0 19.3 0.00 0.00 0.00 67 1012.3
20260508112504 8 233 8.0 19.3 0.00 0.00 0.00 67 1012.2
20260508112003 8 233 8.0 19.3 0.00 0.00 0.00 68 1012.2
20260508111503 8 233 8.0 19.3 0.00 0.00 0.00 68 1012.2
20260508111003 8 233 8.0 19.3 0.00 0.00 0.00 68 1012.2
20260508110505 8 233 8.0 19.3 0.00 0.00 0.00 68 1012.2
20260508110004 8 233 8.0 19.3 0.00 0.00 0.00 68 1012.2
20260508105503 8 233 8.0 19.3 0.00 0.00 0.00 68 1012.1
20260508105004 8 233 8.0 19.3 0.00 0.00 0.00 68 1012.1
20260508104504 8 233 8.0 19.3 0.00 0.00 0.00 68 1012.0
20260508104003 8 233 8.0 19.3 0.00 0.00 0.00 67 1012.0
20260508103504 8 233 8.0 19.3 0.00 0.00 0.00 67 1012.0
20260508103004 9 233 8.0 19.3 0.00 0.00 0.00 67 1012.0
20260508102504 9 233 8.0 19.3 0.00 0.00 0.00 66 1012.0
20260508102005 9 233 8.0 19.3 0.00 0.00 0.00 66 1012.0
20260508101505 9 233 8.0 19.3 0.00 0.00 0.00 66 1012.0
20260508101004 10 233 8.0 19.3 0.00 0.00 0.00 66 1012.0
20260508100503 10 233 8.0 19.3 0.00 0.00 0.00 65 1011.9
20260508100003 10 233 8.0 19.3 0.00 0.00 0.00 65 1012.1
20260508095503 10 233 8.0 19.3 0.00 0.00 0.00 64 1012.1
20260508095006 10 233 8.0 19.3 0.00 0.00 0.00 64 1012.0
20260508094505 10 233 8.0 19.3 0.00 0.00 0.00 63 1012.1
20260508094004 10 233 8.0 19.3 0.00 0.00 0.00 63 1012.0
20260508093503 10 233 8.0 19.3 0.00 0.00 0.00 62 1012.1
20260508093003 10 233 8.0 19.3 0.00 0.00 0.00 62 1012.0
20260508092504 11 233 8.0 19.3 0.00 0.00 0.00 61 1012.1
20260508092005 11 233 8.0 19.3 0.00 0.00 0.00 61 1012.1
20260508091504 11 233 8.0 19.3 0.00 0.00 0.00 60 1012.1
20260508091003 11 233 8.0 19.3 0.00 0.00 0.00 60 1012.0